TimeCST,TemperatureF,Dew PointF,Humidity,Sea Level PressureIn,VisibilityMPH,Wind Direction,Wind SpeedMPH,Gust SpeedMPH,PrecipitationIn,Events,Conditions,WindDirDegrees,DateUTC
12:55 AM,28.2,28.2,100,30.25,10.0,Calm,Calm,-,N/A,,Clear,0,2013-01-09 06:55:00
1:55 AM,26.4,26.4,100,30.28,10.0,Calm,Calm,-,N/A,,Clear,0,2013-01-09 07:55:00
2:55 AM,25.0,25.0,100,30.31,10.0,Calm,Calm,-,N/A,,Clear,0,2013-01-09 08:55:00
3:55 AM,25.7,25.7,100,30.33,10.0,Calm,Calm,-,N/A,,Clear,0,2013-01-09 09:55:00
4:55 AM,24.4,24.4,100,30.34,10.0,Calm,Calm,-,N/A,,Clear,0,2013-01-09 10:55:00
5:55 AM,23.2,23.2,100,30.34,10.0,Calm,Calm,-,N/A,,Clear,0,2013-01-09 11:55:00
6:55 AM,23.0,23.0,100,30.37,10.0,Calm,Calm,-,N/A,,Clear,0,2013-01-09 12:55:00
7:55 AM,22.5,22.5,100,30.43,10.0,SW,5.8,-,N/A,,Clear,230,2013-01-09 13:55:00
8:55 AM,25.7,25.7,100,30.47,10.0,Calm,Calm,-,N/A,,Clear,0,2013-01-09 14:55:00
9:55 AM,30.4,30.4,100,30.48,10.0,SW,3.5,-,N/A,,Clear,220,2013-01-09 15:55:00
10:55 AM,37.8,36.1,94,30.46,10.0,NE,8.1,-,N/A,,Clear,40,2013-01-09 16:55:00
11:55 AM,43.7,32.5,65,30.43,10.0,Variable,3.5,-,N/A,,Clear,0,2013-01-09 17:55:00
12:55 PM,47.8,32.2,55,30.40,10.0,Calm,Calm,-,N/A,,Clear,0,2013-01-09 18:55:00
1:55 PM,52.0,32.7,48,30.38,10.0,Calm,Calm,-,N/A,,Clear,0,2013-01-09 19:55:00
2:55 PM,55.4,31.6,40,30.39,10.0,ESE,3.5,-,N/A,,Clear,110,2013-01-09 20:55:00
3:55 PM,54.7,30.6,40,30.39,10.0,East,4.6,-,N/A,,Clear,100,2013-01-09 21:55:00
4:55 PM,51.6,31.6,46,30.39,10.0,ESE,5.8,-,N/A,,Clear,120,2013-01-09 22:55:00
5:55 PM,45.0,32.4,61,30.40,10.0,Calm,Calm,-,N/A,,Clear,0,2013-01-09 23:55:00
6:55 PM,41.2,32.9,72,30.40,10.0,Calm,Calm,-,N/A,,Clear,0,2013-01-10 00:55:00
7:55 PM,37.6,33.8,86,30.39,10.0,Variable,5.8,-,N/A,,Clear,0,2013-01-10 01:55:00
8:55 PM,38.1,32.7,81,30.39,10.0,NNE,3.5,-,N/A,,Clear,30,2013-01-10 02:55:00
9:55 PM,34.7,34.2,98,30.38,10.0,Calm,Calm,-,N/A,,Clear,0,2013-01-10 03:55:00
10:55 PM,31.5,31.5,100,30.35,10.0,NE,6.9,-,N/A,,Clear,40,2013-01-10 04:55:00
11:55 PM,36.7,35.8,97,30.33,10.0,NE,4.6,-,N/A,,Mostly Cloudy,40,2013-01-10 05:55:00